JST715 YMML-YSCB

Flight info

Callsign JST715
Flight time N/A
Altitude 31000
Route ML H129 DOSEL Y59 ARRAN J42 CB
Aircraft A321/M-SDE3FGHIRWY/LB1

Departure

Time 2026-05-04 05:11
Airport Melbourne Airport (YMML)

Arrival

Time N/A
Airport Canberra Airport (YSCB)
Time Latitude Longitude Altitude Speed Heading
2026-05-04 04:55 -37.67140 144.84587 388 ft 0 kts 352°
2026-05-04 05:03 -37.67157 144.84590 387 ft 3 kts 354°
2026-05-04 05:03 -37.67178 144.84593 387 ft 3 kts 346°
2026-05-04 05:04 -37.67198 144.84643 387 ft 1 kts 262°
2026-05-04 05:07 -37.67201 144.84612 387 ft 7 kts 262°
2026-05-04 05:09 -37.67732 144.84369 370 ft 14 kts 173°
2026-05-04 05:09 -37.67832 144.84321 365 ft 16 kts 230°
2026-05-04 05:10 -37.67865 144.84190 359 ft 15 kts 261°
2026-05-04 05:10 -37.67882 144.84052 359 ft 17 kts 261°
2026-05-04 05:10 -37.67873 144.83969 357 ft 8 kts 332°
2026-05-04 05:10 -37.67814 144.83956 362 ft 13 kts 352°
2026-05-04 05:11 -37.67506 144.83899 367 ft 78 kts 352°
2026-05-04 05:11 -37.66773 144.83765 400 ft 132 kts 353°
2026-05-04 05:11 -37.65845 144.83556 933 ft 138 kts 351°
2026-05-04 05:11 -37.64898 144.83364 1671 ft 137 kts 350°
2026-05-04 05:12 -37.63943 144.83187 2338 ft 145 kts 350°
2026-05-04 05:12 -37.62872 144.82988 2760 ft 166 kts 350°
2026-05-04 05:12 -37.61655 144.82758 3144 ft 189 kts 350°
2026-05-04 05:12 -37.60263 144.82494 3553 ft 215 kts 350°
2026-05-04 05:13 -37.58702 144.82578 4187 ft 236 kts 11°
2026-05-04 05:13 -37.57157 144.83431 4871 ft 246 kts 20°
2026-05-04 05:13 -37.55599 144.84388 5635 ft 251 kts 19°
2026-05-04 05:13 -37.54010 144.85360 6349 ft 256 kts 19°
2026-05-04 05:14 -37.52395 144.86345 7086 ft 260 kts 18°
2026-05-04 05:14 -37.50750 144.87347 7791 ft 265 kts 18°
2026-05-04 05:14 -37.49080 144.88362 8496 ft 269 kts 18°
2026-05-04 05:14 -37.47374 144.89396 8995 ft 275 kts 18°
2026-05-04 05:15 -37.45658 144.90442 9312 ft 274 kts 18°
2026-05-04 05:15 -37.43995 144.91676 9638 ft 284 kts 31°
2026-05-04 05:15 -37.42602 144.93512 9940 ft 297 kts 47°
2026-05-04 05:15 -37.41399 144.95664 10244 ft 308 kts 47°
2026-05-04 05:16 -37.40122 144.97922 10544 ft 326 kts 48°
2026-05-04 05:16 -37.38772 145.00297 10844 ft 342 kts 49°
2026-05-04 05:16 -37.37370 145.02769 11009 ft 350 kts 49°
2026-05-04 05:16 -37.35961 145.05267 11008 ft 351 kts 49°
2026-05-04 05:17 -37.34550 145.07772 11041 ft 352 kts 49°